Fremont, MI

1:27 AM EDT on October 16, 2019 (GMT -0400)
Fremont

Weather History for KFFX - August, 2019

Change the Weather History Date:

Saturday, August 3, 2019

  Actual Average (KMKG) Record (KMKG)
Temperature  
Mean Temperature 70 °F -  
Max Temperature 85 °F 79 °F 99 °F (1964)
Min Temperature 56 °F 58 °F 46 °F (1965)
Cooling Degree Days 6    
Growing Degree Days 20 (Base 50)    
Moisture  
Dew Point 57 °F    
Average Humidity 68    
Maximum Humidity 100    
Minimum Humidity 37    
Precipitation  
Precipitation 0.00 in - - ()
Sea Level Pressure  
Sea Level Pressure 30.07 in    
Wind  
Wind Speed 2 mph (WSW)    
Max Wind Speed 13 mph    
Max Gust Speed 18 mph    
Visibility 10 miles    
Events      
Averages and records for this station are not official NWS values.
T = Trace of Precipitation, MM = Missing Value Source: NWS Daily Summary

Daily Weather History Graph

Daily Weather History Graph

Search for Another Location

Airport or City:

Astronomy

Aug. 03, 2019 Rise Set
Actual Time 6:35 AM EDT 9:04 PM EDT
Civil Twilight 6:03 AM EDT 9:36 PM EDT
Nautical Twilight 5:22 AM EDT 10:16 PM EDT
Astronomical Twilight 4:37 AM EDT 11:01 PM EDT
Moon 9:31 AM EDT (8/3) 11:03 PM EDT (8/3)
Length of Visible Light 15h 33m
Length of Day
14h 28m
Waxing Crescent, 10% of the Moon is Illuminated
Aug 3
Waxing Crescent
Aug 7
First Quarter
Aug 15
Full
Aug 23
Last Quarter
Aug 30
New

Hourly Weather History & Observations

Time (EDT) Temp. Heat Index Dew Point Humidity Pressure Visibility Wind Dir Wind Speed Gust Speed Precip Events Conditions
12:19 AM 61.0 °F - 55.8 °F 83% 30.11 in 10.0 mi Calm Calm - N/A   Clear
12:37 AM 61.3 °F - 56.3 °F 83% 30.11 in 10.0 mi Calm Calm - N/A   Clear
12:55 AM 60.4 °F - 56.1 °F 86% 30.11 in 10.0 mi Calm Calm - N/A   Clear
1:15 AM 60.1 °F - 56.8 °F 89% 30.11 in 10.0 mi Calm Calm - N/A   Clear
1:16 AM 60.1 °F - 56.8 °F 89% 30.11 in 10.0 mi Calm Calm - N/A   Clear
1:35 AM 59.0 °F - 56.3 °F 91% 30.12 in 10.0 mi Calm Calm - N/A   Clear
1:40 AM 59.0 °F - 57.2 °F 94% 30.11 in 10.0 mi Calm Calm - N/A   Clear
1:58 AM 58.6 °F - 57.0 °F 94% 30.11 in 10.0 mi Calm Calm - N/A   Clear
2:16 AM 59.2 °F - 57.6 °F 94% 30.11 in 10.0 mi Calm Calm - N/A   Clear
2:35 AM 58.6 °F - 57.4 °F 96% 30.11 in 10.0 mi Calm Calm - N/A   Clear
2:36 AM 58.8 °F - 57.6 °F 96% 30.11 in 10.0 mi Calm Calm - N/A   Clear
2:55 AM 59.0 °F - 57.6 °F 95% 30.10 in 10.0 mi Calm Calm - N/A   Clear
2:56 AM 58.8 °F - 57.4 °F 95% 30.10 in 10.0 mi Calm Calm - N/A   Clear
3:19 AM 58.5 °F - 57.7 °F 97% 30.10 in 10.0 mi Calm Calm - N/A   Clear
3:37 AM 59.4 °F - 57.2 °F 93% 30.10 in 10.0 mi Calm Calm - N/A   Clear
3:55 AM 58.3 °F - 57.4 °F 97% 30.10 in 10.0 mi Calm Calm - N/A   Clear
3:56 AM 58.3 °F - 57.2 °F 96% 30.10 in 10.0 mi Calm Calm - N/A   Clear
4:15 AM 58.5 °F - 57.4 °F 96% 30.10 in 10.0 mi Calm Calm - N/A   Clear
4:35 AM 58.1 °F - 56.8 °F 96% 30.10 in 10.0 mi Calm Calm - N/A   Clear
4:40 AM 57.9 °F - 57.0 °F 97% 30.10 in 10.0 mi Calm Calm - N/A   Clear
4:58 AM 57.4 °F - 57.0 °F 99% 30.10 in 10.0 mi Calm Calm - N/A   Clear
5:16 AM 57.4 °F - 57.2 °F 99% 30.10 in 10.0 mi Calm Calm - N/A   Clear
5:35 AM 56.8 °F - 56.5 °F 99% 30.11 in 10.0 mi Calm Calm - N/A   Clear
5:36 AM 56.8 °F - 56.3 °F 98% 30.11 in 10.0 mi Calm Calm - N/A   Clear
5:55 AM 57.2 °F - 56.3 °F 97% 30.11 in 10.0 mi Calm Calm - N/A   Clear
6:19 AM 57.2 °F - 57.2 °F 100% 30.10 in 10.0 mi Calm Calm - N/A   Clear
6:37 AM 56.7 °F - 56.7 °F 100% 30.11 in 10.0 mi Calm Calm - N/A   Clear
6:55 AM 56.3 °F - 56.3 °F 100% 30.11 in 10.0 mi Calm Calm - N/A   Clear
6:56 AM 56.3 °F - 56.3 °F 100% 30.11 in 10.0 mi Calm Calm - N/A   Clear
7:15 AM 56.5 °F - 56.5 °F 100% 30.11 in 10.0 mi Calm Calm - N/A   Clear
7:35 AM 56.7 °F - 56.7 °F 100% 30.11 in 10.0 mi Calm Calm - N/A   Clear
7:58 AM 59.7 °F - 59.7 °F 100% 30.11 in 10.0 mi Calm Calm - N/A   Clear
8:16 AM 61.9 °F - 60.1 °F 94% 30.11 in 10.0 mi Calm Calm - N/A   Clear
8:35 AM 64.9 °F - 59.9 °F 84% 30.11 in 10.0 mi Calm Calm - N/A   Clear
8:55 AM 67.5 °F - 61.0 °F 80% 30.11 in 10.0 mi SW 3.5 mph - N/A   Clear
8:56 AM 67.6 °F - 61.2 °F 80% 30.11 in 10.0 mi SW 3.5 mph - N/A   Clear
9:18 AM 70.0 °F - 61.2 °F 73% 30.11 in 10.0 mi SW 3.5 mph - N/A   Clear
9:37 AM 72.7 °F - 60.3 °F 65% 30.11 in 10.0 mi WSW 3.5 mph - N/A   Clear
9:55 AM 73.6 °F - 55.8 °F 54% 30.11 in 10.0 mi WSW 6.9 mph - N/A   Clear
10:15 AM 75.9 °F - 52.7 °F 44% 30.10 in 10.0 mi West 4.6 mph - N/A   Clear
10:16 AM 76.1 °F - 52.5 °F 44% 30.10 in 10.0 mi West 4.6 mph - N/A   Clear
10:35 AM 77.2 °F - 52.2 °F 42% 30.10 in 10.0 mi West 4.6 mph - N/A   Clear
10:40 AM 77.2 °F - 52.2 °F 42% 30.10 in 10.0 mi West 4.6 mph - N/A   Clear
10:58 AM 78.1 °F - 54.0 °F 43% 30.10 in 10.0 mi WSW 5.8 mph - N/A   Clear
11:16 AM 79.2 °F - 54.7 °F 43% 30.10 in 10.0 mi WSW 4.6 mph - N/A   Clear
11:35 AM 79.3 °F - 54.9 °F 43% 30.09 in 10.0 mi SW 4.6 mph - N/A   Clear
11:36 AM 79.3 °F - 55.2 °F 43% 30.09 in 10.0 mi WSW 4.6 mph - N/A   Clear
11:56 AM 80.2 °F 80.4 °F 55.8 °F 43% 30.09 in 10.0 mi West 6.9 mph - N/A   Clear
12:19 PM 80.4 °F 80.5 °F 56.3 °F 43% 30.08 in 10.0 mi West 5.8 mph - N/A   Clear
12:37 PM 81.5 °F 81.3 °F 56.5 °F 42% 30.08 in 10.0 mi West 8.1 mph - N/A   Clear
12:55 PM 82.4 °F 81.8 °F 56.1 °F 40% 30.08 in 10.0 mi Calm Calm - N/A   Clear
1:15 PM 83.1 °F 82.6 °F 57.2 °F 41% 30.07 in 10.0 mi WNW 6.9 mph - N/A   Clear
1:35 PM 83.7 °F 82.8 °F 56.5 °F 39% 30.06 in 10.0 mi West 6.9 mph - N/A   Clear
1:40 PM 83.7 °F 82.8 °F 56.3 °F 39% 30.06 in 10.0 mi WSW 5.8 mph - N/A   Clear
1:58 PM 84.4 °F 83.5 °F 56.8 °F 39% 30.06 in 10.0 mi West 5.8 mph - N/A   Clear
2:16 PM 83.8 °F 83.1 °F 57.0 °F 40% 30.05 in 10.0 mi West 9.2 mph - N/A   Clear
2:35 PM 85.1 °F 84.3 °F 57.2 °F 39% 30.05 in 10.0 mi West 8.1 mph - N/A   Clear
2:55 PM 84.7 °F 83.9 °F 57.4 °F 39% 30.05 in 10.0 mi WSW 9.2 mph - N/A   Clear
2:56 PM 84.7 °F 83.9 °F 57.2 °F 39% 30.05 in 10.0 mi West 8.1 mph - N/A   Clear
3:19 PM 84.7 °F 83.9 °F 57.0 °F 39% 30.04 in 10.0 mi WSW 10.4 mph - N/A   Clear
3:37 PM 84.7 °F 83.6 °F 56.1 °F 37% 30.03 in 10.0 mi WSW 9.2 mph - N/A   Clear
3:55 PM 84.2 °F 83.2 °F 56.1 °F 38% 30.03 in 10.0 mi WSW 11.5 mph - N/A   Clear
4:15 PM 83.8 °F 83.0 °F 56.1 °F 39% 30.03 in 10.0 mi West 6.9 mph - N/A   Clear
4:16 PM 83.7 °F 82.8 °F 56.3 °F 39% 30.03 in 10.0 mi West 8.1 mph - N/A   Clear
4:35 PM 84.6 °F 83.7 °F 57.0 °F 39% 30.03 in 10.0 mi WSW 9.2 mph 18.4 mph N/A   Clear
4:40 PM 84.9 °F 84.1 °F 57.2 °F 39% 30.02 in 10.0 mi WSW 9.2 mph - N/A   Clear
4:58 PM 83.8 °F 83.3 °F 57.9 °F 41% 30.02 in 10.0 mi West 6.9 mph - N/A   Clear
5:16 PM 83.8 °F 83.1 °F 57.4 °F 40% 30.02 in 10.0 mi West 12.7 mph 17.3 mph N/A   Clear
5:35 PM 83.5 °F 83.1 °F 58.5 °F 42% 30.03 in 10.0 mi West 10.4 mph - N/A   Clear
5:36 PM 83.5 °F 83.1 °F 58.3 °F 42% 30.03 in 10.0 mi West 9.2 mph - N/A   Clear
5:55 PM 81.5 °F 81.6 °F 58.1 °F 45% 30.03 in 10.0 mi West 11.5 mph - N/A   Clear
5:56 PM 81.5 °F 81.6 °F 58.1 °F 45% 30.03 in 10.0 mi West 9.2 mph - N/A   Clear
6:19 PM 81.0 °F 81.2 °F 58.5 °F 46% 30.03 in 10.0 mi West 9.2 mph - N/A   Clear
6:37 PM 80.4 °F 80.9 °F 58.6 °F 47% 30.03 in 10.0 mi WSW 8.1 mph - N/A   Clear
6:55 PM 79.7 °F - 58.8 °F 49% 30.03 in 10.0 mi WSW 8.1 mph - N/A   Clear
7:15 PM 78.8 °F - 58.5 °F 50% 30.03 in 10.0 mi West 6.9 mph - N/A   Clear
7:35 PM 77.9 °F - 58.3 °F 51% 30.04 in 10.0 mi West 6.9 mph - N/A   Clear
7:58 PM 76.8 °F - 58.1 °F 52% 30.04 in 10.0 mi West 4.6 mph - N/A   Clear
8:16 PM 75.4 °F - 58.6 °F 56% 30.04 in 10.0 mi West 6.9 mph - N/A   Clear
8:35 PM 74.3 °F - 57.2 °F 55% 30.04 in 10.0 mi West 3.5 mph - N/A   Clear
8:36 PM 74.3 °F - 57.2 °F 55% 30.04 in 10.0 mi West 4.6 mph - N/A   Clear
8:55 PM 72.9 °F - 58.1 °F 60% 30.04 in 10.0 mi West 3.5 mph - N/A   Clear
8:56 PM 72.7 °F - 58.1 °F 60% 30.04 in 10.0 mi West 3.5 mph - N/A   Clear
9:19 PM 70.7 °F - 58.3 °F 65% 30.04 in 10.0 mi Calm Calm - N/A   Clear
9:37 PM 70.2 °F - 58.8 °F 67% 30.03 in 10.0 mi WNW 3.5 mph - N/A   Clear
9:55 PM 69.8 °F - 59.0 °F 68% 30.04 in 10.0 mi Calm Calm - N/A   Clear
9:56 PM 69.6 °F - 59.0 °F 69% 30.04 in 10.0 mi West 3.5 mph - N/A   Clear
10:15 PM 68.4 °F - 59.0 °F 72% 30.04 in 10.0 mi Calm Calm - N/A   Clear
10:16 PM 68.2 °F - 59.0 °F 72% 30.04 in 10.0 mi Calm Calm - N/A   Clear
10:35 PM 66.6 °F - 59.0 °F 77% 30.04 in 10.0 mi Calm Calm - N/A   Clear
10:40 PM 66.0 °F - 58.6 °F 77% 30.04 in 10.0 mi Calm Calm - N/A   Clear
10:58 PM 64.9 °F - 60.3 °F 85% 30.03 in 10.0 mi Calm Calm - N/A   Clear
11:16 PM 64.0 °F - 59.7 °F 86% 30.04 in 10.0 mi Calm Calm - N/A   Clear
11:35 PM 64.4 °F - 60.1 °F 86% 30.04 in 10.0 mi Calm Calm - N/A   Clear
11:55 PM 63.5 °F - 60.8 °F 91% 30.05 in 10.0 mi Calm Calm - N/A   Clear
11:56 PM 63.5 °F - 61.0 °F 91% 30.05 in 10.0 mi Calm Calm - N/A   Clear